Location: Endfield
(51.6667°N, 0.0667°W)
Time: 20:25:01
(UTC+00:00)

Lacrosse 5 rocket - Pass Details

Date: 19 May 2024
Orbit: 446 x 572 km, 57.0° (Epoch: 14 June)

Event Time Altitude Azimuth Distance (km) Brightness Sun altitude
Rises 22:55:04 0° 269° (W) 2,776 5.1 -17.0°
Reaches altitude 10° 22:57:26 10° 276° (W) 1,871 4.3 -17.1°
Maximum altitude 23:01:30 43° 349° (N) 793 2.6 -17.3°
Drops below altitude 10° 23:05:28 10° 62° (ENE) 1,823 4.2 -17.4°
Sets 23:07:45 0° 69° (ENE) 2,696 5.0 -17.5°
